Regional Weather Roundup
Issued by NWS

Home | Current Version | Previous Version | Graphics & Text | Print | Product List | Glossary On
Versions: 1 2 3 4 5 6 7 8 9 10 11 12 13 14 15 16 17 18 19 20 21 22 23 24 25 26 27 28 29 30 31 32 33 34 35 36 37 38 39 40 41 42 43 44 45 46 47 48 49 50
000
ASUS43 KLOT 281308
RWRIL

ILLINOIS REGIONAL WEATHER ROUNDUP
NATIONAL WEATHER SERVICE CHICAGO/ROMEOVILLE IL
800 AM CDT WED SEP 28 2016

NOTE: "FAIR" INDICATES FEW OR NO CLOUDS BELOW 12,000 FEET WITH NO
SIGNIFICANT WEATHER AND/OR OBSTRUCTIONS TO VISIBILITY.

* THESE STATIONS ARE NOT UNDER NWS QUALITY CONTROL. THEY ALSO MAY NOT
  REPORT WEATHER SUCH AS PRECIPITATION OR FOG.

ILZ001-002-007-009-015-016-024-281400-
NORTHWEST ILLINOIS

CITY           SKY/WX    TMP DP  RH WIND       PRES   REMARKS
MOLINE         CLOUDY    52  43  71 N14       29.92R
STERLING*      CLOUDY    51  46  83 N16       29.90R
SAVANNA*       CLOUDY    51  46  83 N13       29.91R
$$

ILZ003-004-008-010-011-017-018-281400-
NORTH CENTRAL ILLINOIS

CITY           SKY/WX    TMP DP  RH WIND       PRES   REMARKS
ROCKFORD       PTSUNNY   50  48  93 N9        29.89R
FREEPORT*      CLOUDY    49  46  92 NW9       29.91R
ROCHELLE*      CLOUDY    49  48  95 N8        29.88R FOG
DE KALB*       CLOUDY    50  46  88 N9        29.87R
$$

ILZ005-006-012>014-019>023-281400-
NORTHEAST ILLINOIS

CITY           SKY/WX    TMP DP  RH WIND       PRES   REMARKS
CHICAGO-OHARE  CLOUDY    51  46  83 N12       29.84R
CHICAGO-MIDWAY CLOUDY    52  47  83 N8        29.83R
AURORA         CLOUDY    51  46  83 N10       29.86R
LANSING*       LGT RAIN  52  51  97 NW5       29.83R
JOLIET*        CLOUDY    53  47  81 N9        29.84R
WAUKEGAN       CLOUDY    50  48  93 VRB3      29.84R
DUPAGE AIRPORT CLOUDY    51  45  79 N12       29.84R
KANKAKEE*      CLOUDY    53  46  76 N10       29.83R
WHEELING       CLOUDY    50  47  89 N7        29.86R
MORRIS*        PTSUNNY   51  46  83 N6        29.84R
ROMEOVILLE*    CLOUDY    51  48  90 N7        29.84R
NORTHERLY ISL    N/A     53  48  83 NW15        N/A
$$

LMZ740>746-281400-
SOUTHERN LAKE MICHIGAN

STATION/POSITION SKY/WX   TEMP    WIND        PRES    VSBY  WAVE
                          AIR SEA DIR/SP/G                  HT/PER
                          (F)     (DEG/KT/KT) (MB)    (MI)  (FT/S)
SOUTHERN BUOY              56 69   80/  4/  6 1009.9R         1/ 3
WILMETTE HARBOR            52 59  360/ 14/ 17   N/A           3/ 3
HARRISON CRIB              54     340/ 18/ 21   N/A
BURNHAM HARBOR             53     330/ 13/ 15   N/A
CALUMET HARBOR             53     330/  9/ 13 1009.4R
BURNS HARBOR               57     360/ 14/ 17 1009.8R
MICHIGAN CITY              56      10/ 16/ 19   N/A
MICHIGAN CITY 6N           58 66   30/ 14/ 19   N/A           3/ 4
ST. JOSEPH                 56 66  350/ 12/ 16 1009.9          3/ 4
$$

ILZ025>027-034>036-040-047-049-050-058-095>099-281400-
WEST-CENTRAL ILLINOIS

CITY           SKY/WX    TMP DP  RH WIND       PRES   REMARKS
QUINCY         LGT RAIN  54  45  71 N18       29.90R
GALESBURG*     SUNNY     50  45  83 N10       29.91R
MACOMB*        SUNNY     51  45  78 N12G18    29.93R
JACKSONVILLE*  CLOUDY    55  46  70 N14       29.87R
PITTSFIELD*    CLOUDY    55  46  71 N8G17     29.89R
$$

ILZ028>032-037-038-041>044-048-051>054-059>061-281400-
CENTRAL ILLINOIS

CITY           SKY/WX    TMP DP  RH WIND       PRES   REMARKS
PONTIAC        CLOUDY    51  48  90 NW7       29.86R
BLOOMINGTON    LGT RAIN  52  46  80 N18       29.85R
DECATUR        CLOUDY    56  48  74 N14G23    29.83R
PEORIA         CLOUDY    51  45  79 N9        29.88R
LACON*         PTSUNNY   50  45  83 N5        29.88R
LINCOLN*       CLOUDY    55  47  76 N7        29.85R
SPRINGFIELD    CLOUDY    56  46  69 N12       29.86R
TAYLORVILLE    CLOUDY    54  46  75 N14G26    29.84R
$$

ILZ033-039-045-046-055>057-062-063-281400-
EAST-CENTRAL ILLINOIS

CITY           SKY/WX    TMP DP  RH WIND       PRES   REMARKS
CHAMPAIGN      CLOUDY    54  49  83 N15G23    29.81R
RANTOUL*       CLOUDY    56  51  84 N10G18    29.80R
MATTOON        CLOUDY    59  51  75 NW9       29.77R
PARIS*         CLOUDY    57  56  96 CALM      29.78R
$$

ILZ079-100>102-281400-
SOUTHWEST ILLINOIS

CITY           SKY/WX    TMP DP  RH WIND       PRES   REMARKS
BELLEVILLE     CLOUDY    63  55  76 NW9       29.80R
CAHOKIA*       CLOUDY    64  53  67 NW8       29.82R
SPARTA*        CLOUDY    60  52  74 W7        29.82R
$$

ILZ064>066-069>071-074>076-080>082-084>086-088>090-092>094-281400-
SOUTH-CENTRAL ILLINOIS

CITY           SKY/WX    TMP DP  RH WIND       PRES   REMARKS
CARBONDALE     CLOUDY    60  55  83 SW6       29.81S
CAIRO*         SUNNY     60  52  74 SW10      29.85S
EFFINGHAM*     CLOUDY    60  56  88 W6        29.78S
MARION         PTSUNNY   61  55  82 SW7       29.83R
MT. VERNON     CLOUDY    57  50  77 SW6       29.80S
CENTRALIA*     CLOUDY    61  55  81 W7        29.79R
SALEM*         CLOUDY    61  55  79 W6        29.80R
METROPOLIS*    MOSUNNY   62  52  70 CALM      29.85S
$$

ILZ067-068-072-073-078-083-087-091-281400-
SOUTHEAST ILLINOIS

CITY           SKY/WX    TMP DP  RH WIND       PRES   REMARKS
LAWRENCEVILLE  CLOUDY    60  53  77 CALM      29.78R
FLORA*         CLOUDY    60  55  82 SW7       29.79R
FAIRFIELD*       N/A     58  55  89 SW3       29.79R
HARRISBURG*    MOSUNNY   60  55  84 SW6       29.82S
ROBINSON*      CLOUDY    58  54  85 SW5       29.78S
CARMI*         CLOUDY    61  54  77 SW7       29.80S
$$

ABBREVIATIONS USED IN REMARKS
   TC - TEMPERATURE IN CELSIUS
  WCI - WIND CHILL INDEX
   HX - HEAT INDEX
  VSB - VISIBILITY
$$




USA.gov is the U.S. government's official web portal to all federal, state and local government web resources and services.